Regional Weather Roundup
Issued by NWS Grand Forks, ND

Home | Current Version | Previous Version | Graphics & Text | Print | Product List | Glossary On
Versions: 1 2 3 4 5 6 7 8 9 10 11 12 13 14 15 16 17 18 19 20 21 22 23 24 25 26 27 28 29 30 31 32 33 34 35 36 37 38 39 40 41 42 43 44 45 46 47 48 49 50
000
ASUS43 KFGF 200510
RWRFGF
PRAIRIE TO PINES  WEATHER ROUNDUP
NATIONAL WEATHER SERVICE EASTERN NORTH DAKOTA/GRAND FORKS ND
1100 PM CST FRI DEC 19 2014

 **SATELLITE DATA USED TO AUGMENT SKY COVER AT AUTOMATED STATIONS**
 *****  WEATHER ACROSS EASTERN NORTH DAKOTA  *****

CITY           SKY/WX    TMP DP  RH WIND       PRES   REMARKS
GRAND FORKS    CLOUDY    29  28  96 S6        30.00R WCI  23
GRAND FRKS AFB CLOUDY    29  29 100 SW5       30.00R WCI  24
GRAND FRKS NWS   N/A     30 N/A N/A S6          N/A  WCI  24
DEVILS LAKE    CLOUDY    25  19  80 W7        29.94S VSB 1   WCI  17
FARGO          CLOUDY    32  28  85 S10       30.02S WCI  24
WAHPETON ARPT  CLOUDY    32  28  86 S12       30.03S WCI  23
$$

 ***** WEATHER ACROSS CENTRAL AND WESTERN NORTH DAKOTA  *****

CITY           SKY/WX    TMP DP  RH WIND       PRES   REMARKS
BISMARCK       MOCLDY    17  14  88 NE3       29.96R
MINOT          CLOUDY    24  22  91 SW5       29.93S FOG     WCI  18
JAMESTOWN      CLOUDY    24  22  91 S8        29.95F FOG     WCI  15
MINOT AFB      FRZ DRZL  24  24 100 SW3       29.94R FOG
GARRISON         N/A     27  25  92 VRB3      29.92F
WILLISTON      FOG       17  14  88 NE5       29.91S VSB 3/4 WCI  10
DICKINSON      CLEAR     25  19  78 S3        29.87S
HETTINGER      CLEAR     22  18  85 CALM      29.92R
$$

 *****  OTHER AIRPORT OBSERVATIONS IN OUR AREA  *****

CITY           SKY/WX    TMP DP  RH WIND       PRES   REMARKS
WALHALLA         N/A     27  27 100 CALM      30.00S FOG
GRAFTON AIRPOR NOT AVBL
VALLEY CITY AR CLOUDY    27  27 100 SW12      29.97S FOG     WCI  16
CANDO          FOG       25  25 100 CALM      29.96F VSB 3/4
CAVALIER APRT  FOG       27  27 100 CALM      30.00S VSB 1/2
GWINNER        CLOUDY    32  32 100 MISG      30.00S
ROLLA          CLOUDY    25  25 100 CALM      29.94S FOG
 ***** THE ABOVE OBSERVATIONS ARE NON NWS ARE NOT QUALITY
       CONTROLLED AND MAY MIS-REPORT RAIN FOR SNOW...
$$

  *****  WEATHER ACROSS NORTHERN MINNESOTA  *****

CITY           SKY/WX    TMP DP  RH WIND       PRES   REMARKS
FLAG ISLAND    CLOUDY    25  23  93 S14       30.04S FOG     WCI  13
WARROAD        CLOUDY    25  21  86 SE7       30.04S FOG     WCI  17
ROSEAU         CLOUDY    27  21  80 SE6       30.02F FOG     WCI  20
HALLOCK        CLOUDY    28  28 100 CALM      30.00S FOG
THF RVR FALLS  CLOUDY    27  27 100 SE8       30.01S WCI  18
BAUDETTE       LGT SNOW  25  22  88 SE6       30.04F FOG     WCI  18
WASKISH        LGT SNOW  25  25 100 CALM      30.05S
CROOKSTON      CLOUDY    30  28  93 S10       30.02S FOG     WCI  21
STEPHEN NDAWN    N/A     28  28 100 S5          N/A  WCI  23
GREENBUSH NDAW   N/A     27  27 100 SE6         N/A  WCI  20
$$
  *****  WEATHER ACROSS CENTRAL AND WEST MINNESOTA  *****

CITY           SKY/WX    TMP DP  RH WIND       PRES   REMARKS
FOSSTON        CLOUDY    27  25  93 S6        30.02R FOG     WCI  20
BEMIDJI        LGT SNOW  25  24  95 SE7       30.02S WCI  17
PARK RAPIDS    CLOUDY    29  27  92 S8        30.02F FOG     WCI  21
ELBOW LAKE     CLOUDY    29  29  98 S16       30.03F FOG     WCI  18
WADENA         CLOUDY    28  28 100 S6        30.04S FOG     WCI  22
DETROIT LAKES  CLOUDY    30  30 100 S10       30.02S FOG     WCI  21
MOORHEAD       CLOUDY    32  32 100 S10       30.03S FOG     WCI  24
FERGUS FALLS   CLOUDY    30  28  93 S14       30.06S FOG     WCI  20
MORRIS MN      CLOUDY    30  28  93 S10       30.05R FOG     WCI  21
STAPLES        CLOUDY    27  27 100 S5        30.06S FOG     WCI  21
$$
  *****  WEATHER ELSEWHERE ACROSS MINNESOTA  *****

CITY           SKY/WX    TMP DP  RH WIND       PRES   REMARKS
DULUTH         CLOUDY    25  22  88 S7        30.13F FOG     WCI  17
INTRNTL FALLS  LGT SNOW  24  21  88 SE8       30.08S FOG     WCI  15
ELY            LGT SNOW  25  21  86 S3        30.12S
CLOQUET        CLOUDY    25  21  86 SE5       30.13F FOG     WCI  19
WHEATON        CLOUDY    28  27  93 SE7       30.06S FOG     WCI  21
BRAINERD       CLOUDY    27  25  92 SE10      30.08F FOG     WCI  17
HIBBING        CLOUDY    25  22  88 S7        30.10F FOG     WCI  17
ALEXANDRIA     CLOUDY    30  28  92 S12       30.06S FOG     WCI  20
SAINT CLOUD    CLOUDY    31  27  85 SE10      30.11F FOG     WCI  22
MINNEAPOLIS    CLOUDY    29  24  82 SE9       30.17F HAZE    WCI  20
$$

  *****  WEATHER ACROSS SOUTH DAKOTA  *****

CITY           SKY/WX    TMP DP  RH WIND       PRES   REMARKS
SIOUX FALLS    CLOUDY    31  28  89 S9        30.07S WCI  23
BROOKINGS      NOT AVBL
WATERTOWN      CLOUDY    29  28  96 S14       30.01S FOG     WCI  18
HURON          CLOUDY    28  26  92 S12       30.03S FOG     WCI  18
SISSETON         N/A     31  28  89 SW9       30.02R WCI  23
ABERDEEN       CLOUDY    29  26  89 S10       30.01S FOG     WCI  20
MITCHELL       CLOUDY    29  27  92 S12       30.05R FOG     WCI  19
PIERRE         CLEAR     16  14  92 E5        29.96S FOG     WCI   9
MOBRIDGE       CLEAR     22  20  92 SE8       29.92S WCI  12
RAPID CITY     CLEAR     24  19  81 W3        29.91S
$$

  *****  SOME WEATHER IN NEARBY STATES *****

CITY           SKY/WX    TMP DP  RH WIND       PRES   REMARKS
GLASGOW MT     CLOUDY    30  25  81 E13       29.82F WCI  20
GREAT FALLS MT PTCLDY    38  30  73 SW16      29.82S
CHEYENNE WY    PTCLDY    32  15  49 W12       29.98S WCI  23
SCOTTSBLUFF NE CLEAR     22  16  78 CALM      29.99R
OMAHA NE       CLOUDY    32  29  88 SE10      30.16R WCI  24
DES MOINES IA  FRZ DRZL  32  30  92 S6        30.20R FOG
DAVENPORT IA   CLOUDY    28  22  78 SE7       30.26S WCI  21
CHICAGO IL     CLOUDY    29  22  75 CALM      30.25F
EAU CLAIRE WI  CLOUDY    27  21  78 SE3       30.21S
LA CROSSE WI   CLOUDY    30  21  69 S7        30.24S WCI  23
$$

  *****  SOME NATIONAL WEATHER *****

CITY           SKY/WX    TMP DP  RH WIND       PRES   REMARKS
LA GUARDIA NY  CLOUDY    33  22  63 NW12      30.20R WCI  24
RALEIGH NC     MOCLDY    37  28  70 CALM      30.22R
ATLANTA GA     LGT RAIN  43  35  73 NW5       30.15F
NEW ORLEANS LA RAIN      50  48  93 NE16      30.07F FOG
OKLAHOMA CITY  CLOUDY    40  36  86 CALM      30.21S
ALBUQUERQUE NM PTCLDY    35  24  64 NW5       30.20R
SALT LAKE CITY CLOUDY    41  30  65 N7        30.14R
LOS ANGELES CA MOCLDY    59  50  72 VRB5      30.18R
BOISE ID       CLOUDY    40  35  83 SE9       30.09R
SEATTLE WA     CLOUDY    47  36  65 SE9       29.91F
$$

*** WEATHER ACROSS MANITOBA...SASKATCHEWAN AND ONTARIO ***
                ***ONTARIO***

CITY           SKY/WX    TMP DP  RH WIND       PRES   REMARKS
GERALDTON      MOCLDY    -8  -9  92 CALM      30.23F FOG
THUNDER BAY    CLOUDY    21  19  93 CALM      30.21F
SIOUX LOOKOUT  NOT AVBL
TORONTO        PTCLDY    25  21  86 N8        30.27F WCI  16
BIG TROUT LK   CLOUDY    18  16  93 SW5       30.11F WCI  11
PICKLE LAKE    NOT AVBL
DRYDEN         FLURRIES  21  21 100 S6        30.08S WCI  14
KENORA         LGT SNOW  23  21  93 S7        30.05S VSB 1   WCI  15
$$
                *** MANITOBA***

CITY           SKY/WX    TMP DP  RH WIND       PRES   REMARKS
BRANDON        CLOUDY    23  21  93 E5        29.97S FOG     WCI  17
DAUPHIN        CLOUDY    21  19  93 CALM      30.00S
ISLAND LAKE    FLURRIES  18  14  86 SE3       30.06S
PILOT MOUND      N/A     25  25 100 SW1         N/A
THE PAS        CLOUDY    18  16  93 SE5       29.98F FOG     WCI  11
THOMPSON       FLURRIES  16  14  93 S2        30.01S
WINNIPEG       NOT AVBL
LYNN LAKE      CLOUDY    14  14 100 S3        29.93S
GILLAM         LGT SNOW  14  10  85 W5        30.04R WCI   6
$$
                ***SASKATCHEWAN***

CITY           SKY/WX    TMP DP  RH WIND       PRES   REMARKS
ESTEVAN        FOG       19  18  93 S2        29.92S VSB 1/4
KINDERSLEY     NOT AVBL
LLOYDMINSTER   CLOUDY    12  10  92 SE10      29.71F WCI  -1
PRINCE ALBERT  NOT AVBL
REGINA         FOG       14  12  92 SE13      29.90S VSB 1/2 WCI   0
YORKTON        CLOUDY    21  19  93 SE9       29.92F WCI  11
N. BATTLEFORD  LGT SNOW  16  14  93 SE16G24   29.79F WCI   0
LA RONGE       NOT AVBL
SASKATOON      LGT SNOW  18  16  93 SE12      29.86F VSB 1   WCI   5
SWIFT CURRENT    N/A     30  27  86 S18       29.73F WCI  18
$$
NOTE: THESE ARE AUTOMATED STATIONS WITH LIMITED QUALITY CONTROL
      "FAIR" INDICATES FEW OR NO CLOUDS BELOW 12,000 FEET WITH NO
      SIGNIFICANT WEATHER AND/OR OBSTRUCTIONS TO VISIBILITY.
      SKY/WX - SKY CONDITION AND SIGNIFICANT WEATHER.
      TMP - AIR TEMPERATURE.    DP   - DEWPOINT TEMPERATURE.
      RH  - RELATIVE HUMIDITY.  PRES - PRESSURE.
      HX  - HEAT INDEX.         WCI  - WIND CHILL INDEX.
$


USA.gov is the U.S. government's official web portal to all federal, state and local government web resources and services.